Location: Rometta
(44.2000°N, 10.0500°E)
Time: 08:00:35
(UTC+00:00)

X-37B - Visible Passes

Search period start: 09 May 2021 00:00
Search period end: 19 May 2021 00:00
Orbit: 386 x 389 km, 45.0° (Epoch: 06 May)

Date Brightness Start Highest point End Pass type
(mag) Time Alt. Az. Time Alt. Az. Time Alt. Az.
09 May 0.5 20:20:24 10° W 20:23:36 79° SSW 20:24:16 52° ESE visible
10 May 0.6 19:22:01 10° W 19:25:13 83° N 19:28:21 10° E visible
10 May 2.2 20:58:46 10° W 21:00:38 26° WSW 21:00:38 26° WSW visible
11 May 0.8 20:00:18 10° W 20:03:26 55° SSW 20:04:43 30° SE visible
12 May 0.6 19:01:53 10° W 19:05:05 79° SSW 19:08:16 10° ESE visible
12 May 2.4 20:38:54 10° W 20:41:05 21° SW 20:41:05 21° SW visible
13 May 1.6 19:40:15 10° W 19:43:12 35° SSW 19:45:13 17° SSE visible
14 May 3.0 20:19:30 10° WSW 20:21:04 13° SW 20:21:39 13° SSW visible
15 May 2.4 19:20:23 10° W 19:22:54 22° SSW 19:25:26 10° SSE visible
